Regional Weather Roundup
Issued by NWS Charleston, SC

Current Version | Previous Version | Graphics & Text | Print | Product List | Glossary On
Versions: 1 2 3 4 5 6 7 8 9 10 11 12 13 14 15 16 17 18 19 20 21 22 23 24 25 26 27 28 29 30 31 32 33 34 35 36 37 38 39 40 41 42 43 44 45 46 47 48 49 50
000 ASUS42 KCHS 221625 RWRCHS REGIONAL WEATHER ROUNDUP NATIONAL WEATHER SERVICE CHARLESTON SC 1100 AM EST MON DEC 22 2014 NOTE: "FAIR" INDICATES FEW OR NO CLOUDS BELOW 12,000 FEET WITH NO SIGNIFICANT WEATHER AND/OR OBSTRUCTIONS TO VISIBILITY. NOT ALL STATIONS ARE QUALITY CONTROLLED BY THE NATIONAL WEATHER SERVICE. USE DATA WITH CAUTION...ESPECIALLY DEWPOINT OBSERVATIONS. SCZ027-030-031-034>040-042>050-221700- ...SOUTHEAST SOUTH CAROLINA... CITY SKY/WX TMP DP RH WIND PRES REMARKS N CHARLESTON CLOUDY 46 45 93 N7 30.08F FOG WATERFRONT PRK N/A 46 N/A N/A N10 N/A MOUNT PLEASANT CLOUDY 46 46 100 N5 30.08S FOG PINOPOLIS N/A 46 45 93 NE8 30.01S MONCKS CORNER N/A 46 45 93 NE5 30.08F FOG SUMMERVILLE LGT RAIN 45 45 100 N5 30.08F BEAUFORT MCAS LGT RAIN 48 46 93 N9 30.06F BEAUFORT ARPT DRIZZLE 46 46 100 NE8 30.06F HILTON HEAD IS FOG 48 48 100 N10 30.06F VSB 1 WALTERBORO RAIN 46 N/A N/A NE6 30.07F ALLENDALE LGT RAIN 45 45 100 VRB6 30.04F ...SOUTHERN MIDLANDS AND PEE DEE... CITY SKY/WX TMP DP RH WIND PRES REMARKS GEORGETOWN NOT AVBL KINGSTREE NOT AVBL ORANGEBURG CLOUDY 44 41 89 NE7 30.09F BARNWELL HVY RAIN 45 45 100 NE9 30.04F AIKEN CLOUDY 45 45 100 NE9 30.09F FOG MANNING CLOUDY 45 N/A N/A NE3 30.09F COLUMBIA CLOUDY 46 43 89 NE7 30.09F SUMTER NOT AVBL FLORENCE CLOUDY 43 40 89 NE8 30.10F MYRTLE BEACH CLOUDY 45 43 93 N8 30.09S N MYRTLE BEACH LGT RAIN 45 43 93 N9 30.07F $$ GAZ063-065-086>088-099>101-113>116-118-119-134>141-150-221700- ...SOUTHEAST GEORGIA... CITY SKY/WX TMP DP RH WIND PRES REMARKS SAVANNAH ARPT FOG 50 47 89 NE8 30.05F VSB 1 HUNTER AAF NOT AVBL FORT STEWART NOT AVBL STATESBORO RAIN 46 46 100 NE3 30.04S SYLVANIA RAIN 46 46 100 E5 30.05F CLAXTON RAIN 48 48 100 CALM 30.04S ...CSRA...CENTRAL AND FAR SOUTHEAST GEORGIA... CITY SKY/WX TMP DP RH WIND PRES REMARKS THOMSON CLOUDY 47 47 100 NE5G10 30.10S AUGUSTA-BUSH LGT RAIN 46 44 93 NE7 30.07F FOG AUGUSTA-DANIEL LGT RAIN 47 45 93 NE8 30.05F FOG SWAINSBORO LGT RAIN N/A N/A N/A CALM 30.05F VIDALIA RAIN 48 48 100 NE5 30.04R EASTMAN RAIN 49 49 100 E3 30.05F HAZLEHURST CLOUDY 50 50 100 E5 30.03R VSB 1/2 ALMA FOG 50 49 96 CALM 30.02S VSB 1/2 WAYCROSS FOG 55 55 100 E6 30.00F VSB 1/4 JESUP FOG 54 54 100 E5 30.01F VSB 1/2 BAXLEY LGT RAIN 52 50 93 E5 30.01F VSB 1 BRUNSWICK CLOUDY 54 52 94 NE7 30.02F VSB 1/4 SAINT SIMONS FOG 55 55 100 NE7 30.01F VSB 1/2 $$ SCZ027-028-034-036>038-045-046-048>050-GAZ119-141-221700- ...LAKE AND SUPPLEMENTAL COASTAL OBSERVATIONS... STATION/POSITION TIME TEMP WIND PRES WAVE SWELL AIR SEA DIR/SP/G HT/PER HT/PER/DIR (UTC) (F) (DEG/KT/KT) (MB) (FT/S) (FT/S/D) UPR LAKE MARION NOT AVBL WINYAH BAY 1600 45 350/ 4 1018.0S LAKE MURRAY 1500 44 50/ 3/ 8 1019.0F ACE BASIN NERRS 1600 45 20/ 2 1018.0S FORT PULASKI 1600 50 56 40/ 9/ 11 1017.8F SAPELO ISLAND 1600 53 30/ 11 1016.0F $$ ANZ835-935-AMZ111-154-330-350-352-354-370-450-454-472-221700- ...C-MAN AND BUOY OBSERVATIONS... STATION/POSITION TIME TEMP WIND PRES WAVE SWELL AIR SEA DIR/SP/G HT/PER HT/PER/DIR (UTC) (F) (DEG/KT/KT) (MB) (FT/S) (FT/S/D) BUOY 41004 1600 60 73 10/ 14/ 16 1016.8F 5/ 7 3/ 9 BUOY 41008 1600 57 59 10/ 14/ 16 1016.5S 3/ 9 2/ 60/ 9 FOLLY BEACH CMAN 1600 47 350/ 8/ 10 1018.7F CAPERS NEARSHORE 1500 47 20/ 12/ 16 N/A FRIPP NEARSHORE NOT AVBL STATION/POSITION TIME TEMP WIND PRES WAVE SWELL AIR SEA DIR/SP/G HT/PER HT/PER/DIR (UTC) (F) (DEG/KT/KT) (MB) (FT/S) (FT/S/D) 5E ST. MARYS GA 1600 61 N/A 3/ 9 FRYING PAN BUOY 1600 54 69 350/ 17/ 19 1017.7F 5/ 8 3/100/ 8 BUOY 41025 1600 69 1016.2F 10/ 7 CAPE LOOKOUT NC 1600 52 350/ 10/ 12 1016.5F BUOY 41002 1531 70 72 230/ 8/ 10 1019.1F 4/ 7 3/ 70/ 7 BUOY 41010 1600 75 77 130/ 6/ 6 1018.1F 4/ 8 3/ 20/ 8 ST AUGUSTINE FL 1600 64 160/ 10/ 10 1016.3F $$

USA.gov is the U.S. government's official web portal to all federal, state and local government web resources and services.